Preview of NWS' New Version of Forecast
This preview is not operational and should not be used for support decisions.

Regional Weather Roundup (RWR)

Issued by National Weather Service (NWS)

                            
000
ASUS44 KJAN 180110
RWRMS 

MISSISSIPPI HOURLY WEATHER ROUNDUP
NATIONAL WEATHER SERVICE JACKSON MS
800 PM CDT MON JUN 17 2019

NOTE: "FAIR: INDICATES FEW OR NO CLOUDS BELOW 12,000 FEET WITH NO
SIGNIFICANT WEATHER AND/OR OBSTRUCTIONS TO VISIBILITY.

MSZ001>002-007>008-010>013-018>021-025>028-034>036-180200-
NORTHWEST MISSISSIPPI
  
CITY           SKY/WX    TMP DP  RH WIND       PRES   REMARKS
BATESVILLE       N/A     72  70  94 CALM      29.93F                  
CLARKSDALE     CLEAR     73  73 100 SE6       29.92R                  
CLEVELAND      FAIR      73  73 100 SE8       29.91R                  
GREENWOOD      FAIR      73  69  87 SE5       29.92S                  
GREENVILLE     FAIR      74  71  91 SE10      29.89S                  
OLIVE BRANCH   MOCLDY    70  70 100 S6G13     29.92S                  
OXFORD         FAIR      70  70 100 SE6       29.95F                  
TUNICA           N/A     72  70  94 S5        29.93S                  
WINONA         FAIR      70  70 100 CALM      29.93F                  
$$

MSZ003>006-009-014>017-022>024-029>033-037>039-180200-
NORTHEAST MISSISSIPPI
  
CITY           SKY/WX    TMP DP  RH WIND       PRES   REMARKS
ABERDEEN       FAIR      70  70 100 CALM      29.97S                  
COLUMBUS AFB   NOT AVBL                                               
CORINTH        LGT RAIN  73  72  94 SW6G12    29.97R                  
GOLDN TRIANGLE LGT RAIN  72  71  97 CALM      29.96S                  
STARKVILLE     FAIR      70  70 100 CALM      29.96F                  
TUPELO         LGT RAIN  74  70  87 SE3       29.96F                  
$$

MSZ040-058-180200-
CENTRAL MISSISSIPPI
  
CITY           SKY/WX    TMP DP  RH WIND       PRES   REMARKS
JACKSON INTL   NOT AVBL                                               
JACKSON HAWKNS LGT RAIN  74  73  97 E6        29.93F                  
MADISON        FAIR      72  72 100 CALM      29.93F                  
MERIDIAN KEY   FAIR      75  71  87 E3        29.96S                  
MERIDIAN NAS   CLOUDY    73  69  87 E8        29.97R                  
RAYMOND        FAIR      73  73 100 E5        29.91F                  
VICKSBURG VKS  CLEAR     75  75 100 SE7       29.90S                  
$$

MSZ059>079-180200-
SOUTH MISSISSIPPI
  
CITY           SKY/WX    TMP DP  RH WIND       PRES   REMARKS
HATTIESBURG    LGT RAIN  80  74  81 S7        29.96R                  
LAUREL         CLEAR     78  73  84 NE3       29.95R                  
MCCOMB         FAIR      76  72  87 SE5       29.93S                  
NATCHEZ        FAIR      77  73  87 SE8       29.91S                  
PINE BELT      LGT RAIN  77  75  94 CALM      29.97R                  
$$

MSZ080>082-180200-
COASTAL MISSISSIPPI
  
CITY           SKY/WX    TMP DP  RH WIND       PRES   REMARKS
BAY ST LOUIS   PTCLDY    75  73  94 SE3       29.96R                  
BILOXI         MOCLDY    81  73  78 NW5       29.95R                  
PASCAGOULA     FAIR      83  74  74 CALM      29.95S                  
GULFPORT       FAIR      77  72  84 NW5       29.95R                  
$$

LAZ007>009-015>016-023>026-180200-
NORTHEAST LOUISIANA
  
CITY           SKY/WX    TMP DP  RH WIND       PRES   REMARKS
BASTROP        FAIR      74  74  98 CALM      29.90R                  
TALLULAH/VBURG FAIR      76  73  91 SE7       29.90R                  
VIDALIA        FAIR      79  74  83 SE7       29.89R                  
$$